[[{"header":{"parameterUnit":"m.s-1","parameterCategory":1,"la1":30.2991,"la2":30.254,"lo1":-89.0895,"lo2":-89.0444,"dy":0.0017,"dx":0.0017,"nx":28,"ny":28,"refTime":"2024-04-05T09:00:00:Z","depth":0,"parameterNumber":2,"parameterNumberName":"U-component_of_WINDS"},"data":[0,0,0,0,0,0,0,0,0,0,0,0,0,0,0,0,0,0,0,0,0,0,0,0,0,0,0,0,0,0,0,0,0,0,0,0,0,0,0,0,0,0,0,0,0,0,0,0,0,0,0,0,0,0,0,0,0,0,-1.2974,-1.2973,0,-1.292,-1.2919,-1.2918,-1.2848,-1.2846,-1.2845,-1.2844,-1.2789,-1.2788,-1.2788,0,0,0,0,0,0,0,0,0,0,0,0,0,-1.3016,-1.3016,-1.2974,-1.2973,-1.2972,-1.292,-1.2919,-1.2918,-1.2848,-1.2846,-1.2845,-1.2844,-1.2789,-1.2788,-1.2788,0,0,0,0,0,0,0,0,0,0,0,0,0,-1.2983,-1.3016,-1.2974,-1.2931,-1.2927,-1.292,-1.2919,-1.2918,-1.2848,-1.2846,-1.2845,-1.2843,-1.2789,-1.2788,-1.2788,-1.2818,0,0,-1.2786,-1.2785,0,0,0,0,0,0,0,0,-1.2985,-1.2982,-1.2938,-1.2934,-1.2929,-1.2889,-1.2913,-1.2885,-1.2849,-1.2878,-1.2844,-1.2842,-1.2823,-1.282,-1.2813,-1.2816,-1.2813,-1.2786,-1.2785,-1.2785,-1.2785,0,0,0,0,0,0,0,-1.2988,-1.2984,-1.2952,-1.2937,-1.2932,-1.2914,-1.2908,-1.2907,-1.2861,-1.2875,-1.287,-1.2865,-1.282,-1.2814,-1.2811,-1.2813,-1.2786,-1.2785,-1.2785,-1.2785,-1.2837,-1.2839,0,0,0,0,0,0,-1.2996,-1.2986,-1.2954,-1.2951,-1.2953,-1.2915,-1.2908,-1.2903,-1.2861,-1.2853,-1.2866,-1.2861,-1.2816,-1.2812,-1.2809,-1.2842,-1.2785,-1.2784,-1.2784,-1.2836,-1.2838,-1.284,0,0,0,0,0,0,-1.2998,-1.2994,-1.2956,-1.2967,-1.2961,-1.2916,-1.2912,-1.2903,-1.2897,-1.2854,-1.2845,-1.2868,-1.2814,-1.281,-1.2817,-1.2839,-1.2784,-1.2784,-1.2834,-1.2836,-1.2839,-1.2909,0,0,0,0,0,0,-1.2999,-1.2995,-1.3006,-1.2968,-1.296,-1.2965,-1.2913,-1.2903,-1.2896,-1.2889,-1.2853,-1.2846,-1.2813,-1.2818,-1.2816,-1.2838,-1.2783,-1.2831,-1.2835,-1.2838,-1.2905,-1.2914,-1.2922,0,0,0,0,0,-1.3001,-1.3028,-1.3007,-1.3004,-1.2974,-1.2966,-1.2962,-1.2924,-1.2898,-1.2909,-1.2881,-1.2847,-1.2837,-1.2819,-1.2816,-1.2838,-1.283,-1.2834,-1.2838,-1.2901,-1.2912,-1.2922,0,0,0,0,0,0,-1.3071,-1.3023,-1.2999,-1.3015,-1.2995,-1.2954,-1.2967,-1.2937,-1.2924,-1.2919,-1.2871,-1.2864,-1.2876,-1.2857,-1.2838,-1.2866,-1.2828,-1.2832,-1.2877,-1.2888,-1.2896,-1.29,-1.2783,0,0,0,0,0,-1.3088,-1.3086,-1.3044,-1.3062,-1.3054,-1.3012,-1.3008,-1.298,-1.2957,-1.2949,-1.2922,-1.2901,-1.2894,-1.289,-1.288,-1.2902,-1.2893,-1.2915,-1.2924,-1.2931,-1.2935,-1.2945,-1.2954,-1.2853,-1.2853,-1.2853,0,0,-1.3124,-1.3097,-1.3099,-1.3076,-1.3057,-1.3056,-1.3006,-1.3007,-1.3006,-1.2949,-1.2953,-1.2933,-1.2907,-1.2921,-1.2926,-1.2906,-1.2961,-1.2936,-1.2942,-1.2942,-1.295,-1.2959,-1.2968,-1.2856,-1.2855,-1.2855,0,0,-1.3189,-1.3169,-1.3181,-1.3164,-1.3137,-1.3109,-1.3112,-1.3076,-1.306,-1.3064,-1.3021,-1.3019,-1.3007,-1.299,-1.298,-1.3038,-1.3006,-1.3036,-1.3082,-1.3092,-1.31,-1.3107,-1.3127,-1.3135,-1.304,-1.304,-1.3041,0,-1.3237,-1.3234,-1.3192,-1.3195,-1.3186,-1.3135,-1.3147,-1.3132,-1.3104,-1.3099,-1.3077,-1.306,-1.3039,-1.3049,-1.3063,-1.3057,-1.3059,-1.304,-1.3102,-1.3108,-1.3114,-1.3133,-1.3141,-1.3044,-1.3044,-1.3043,-1.3043,0,-1.3294,-1.3292,-1.3306,-1.3279,-1.3272,-1.328,-1.3239,-1.3236,-1.3209,-1.3184,-1.3188,-1.3161,-1.3145,-1.3145,-1.3119,-1.3151,-1.314,-1.3111,-1.3072,-1.3128,-1.3146,-1.3153,-1.305,-1.3048,-1.3047,-1.3046,0,0,-1.3402,-1.3351,-1.3357,-1.3344,-1.331,-1.3308,-1.3314,-1.3299,-1.3297,-1.3279,-1.3283,-1.3273,-1.3246,-1.3235,-1.3206,-1.3215,-1.3263,-1.3184,-1.3183,-1.32,-1.3297,-1.3319,-1.3328,-1.3241,-1.3242,-1.3243,-1.3299,0,-1.346,-1.3467,-1.3429,-1.3446,-1.3444,-1.3395,-1.34,-1.338,-1.3356,-1.3351,-1.3324,-1.3319,-1.3283,-1.3276,-1.3283,-1.3256,-1.3281,-1.3251,-1.3244,-1.3244,-1.3252,-1.3337,-1.336,-1.3414,-1.3305,-1.3306,-1.3307,0,-1.3529,-1.3515,-1.3531,-1.3496,-1.3494,-1.3499,-1.3482,-1.3477,-1.3453,-1.3435,-1.3423,-1.3389,-1.3392,-1.3356,-1.3359,-1.3339,-1.3334,-1.332,-1.3321,-1.3319,-1.3279,-1.3337,-1.343,-1.3439,-1.3317,-1.3317,-1.3316,0,-1.3606,-1.3591,-1.3599,-1.3589,-1.3549,-1.3553,-1.3537,-1.3511,-1.3504,-1.3489,-1.3483,-1.3469,-1.3461,-1.345,-1.3414,-1.3391,-1.3421,-1.3382,-1.3407,-1.3408,-1.3415,-1.3416,-1.3509,-1.3412,-1.3412,-1.3412,-1.3412,0,-1.3675,-1.3688,-1.3633,-1.3638,-1.365,-1.3606,-1.362,-1.3598,-1.3575,-1.3575,-1.3532,-1.3533,-1.3484,-1.3479,-1.3451,-1.3458,-1.3454,-1.344,-1.3432,-1.3444,-1.3446,-1.344,-1.3435,-1.3414,-1.3414,-1.3413,-1.3413,0,-1.3764,-1.3727,-1.3733,-1.3694,-1.3684,-1.3695,-1.3661,-1.3664,-1.3638,-1.3638,-1.3636,-1.3594,-1.3586,-1.3549,-1.3532,-1.3513,-1.353,-1.3514,-1.3538,-1.3533,-1.356,-1.3558,-1.3653,-1.3664,-1.356,-1.3561,-1.3562,0,-1.381,-1.3819,-1.378,-1.3777,-1.3762,-1.3758,-1.375,-1.3708,-1.3702,-1.3675,-1.3681,-1.367,-1.3658,-1.3648,-1.3616,-1.3603,-1.3587,-1.3621,-1.3585,-1.3597,-1.3588,-1.3588,-1.3588,-1.363,-1.3631,-1.3632,-1.3633,0,-1.3897,-1.3879,-1.387,-1.3855,-1.3847,-1.3833,-1.3816,-1.3816,-1.3769,-1.3764,-1.3756,-1.3747,-1.373,-1.3719,-1.3701,-1.3683,-1.365,-1.3645,-1.365,-1.3662,-1.3675,-1.3668,-1.356,-1.3643,-1.3642,-1.3641,-1.364,-1.364,-1.3966,-1.3971,-1.3945,-1.3936,-1.3919,-1.3905,-1.3905,-1.3879,-1.3871,-1.3854,-1.3829,-1.3824,-1.3799,-1.3771,-1.3756,-1.3751,-1.3732,-1.374,-1.3742,-1.3744,-1.375,-1.3676,-1.3748,-1.3747,-1.3747,-1.3747,-1.3746,0,-1.4051,-1.4031,-1.4024,-1.4002,-1.3995,-1.3965,-1.3944,-1.3941,-1.3937,-1.3917,-1.3906,-1.3896,-1.3886,-1.3853,-1.3839,-1.3842,-1.3826,-1.3839,-1.3839,-1.3835,-1.3768,-1.3765,-1.3852,-1.3852,-1.3852,-1.3852,-1.3852,-1.3852,-1.4094,-1.4101,-1.408,-1.4077,-1.4058,-1.4052,-1.4043,-1.403,-1.4013,-1.4004,-1.3995,-1.3974,-1.3948,-1.3932,-1.3921,-1.3911,-1.3908,-1.3927,-1.3913,-1.385,-1.384,-1.383,-1.3827,-1.3926,-1.3926,-1.398,-1.3981,-1.3981]},{"header":{"parameterUnit":"m.s-1","parameterCategory":1,"la1":30.2991,"la2":30.254,"lo1":-89.0895,"lo2":-89.0444,"dy":0.0017,"dx":0.0017,"nx":28,"ny":28,"refTime":"2024-04-05T09:00:00:Z","depth":0,"parameterNumber":3,"parameterNumberName":"V-component_of_WINDS"},"data":[0,0,0,0,0,0,0,0,0,0,0,0,0,0,0,0,0,0,0,0,0,0,0,0,0,0,0,0,0,0,0,0,0,0,0,0,0,0,0,0,0,0,0,0,0,0,0,0,0,0,0,0,0,0,0,0,0,0,3.2688,3.2688,0,3.2704,3.2704,3.2704,3.265,3.2649,3.2647,3.2646,3.266,3.2662,3.2664,0,0,0,0,0,0,0,0,0,0,0,0,0,3.2607,3.2609,3.2687,3.2688,3.2688,3.2704,3.2704,3.2704,3.2651,3.2649,3.2647,3.2645,3.266,3.2662,3.2664,0,0,0,0,0,0,0,0,0,0,0,0,0,3.2635,3.2609,3.2687,3.2663,3.2661,3.2704,3.2704,3.2704,3.2651,3.2649,3.2646,3.2644,3.2659,3.2662,3.2664,3.2731,0,0,3.2673,3.2674,0,0,0,0,0,0,0,0,3.2633,3.2638,3.2666,3.2665,3.2663,3.2673,3.2681,3.2713,3.2652,3.2655,3.2646,3.2643,3.2666,3.2668,3.2677,3.2731,3.2732,3.2673,3.2675,3.2676,3.2677,0,0,0,0,0,0,0,3.2631,3.2636,3.2694,3.2667,3.2665,3.265,3.2652,3.2687,3.2674,3.2654,3.265,3.2653,3.2665,3.2674,3.2676,3.2732,3.2673,3.2676,3.2678,3.2679,3.284,3.2843,0,0,0,0,0,0,3.2633,3.2635,3.2693,3.2694,3.2642,3.2654,3.2655,3.2672,3.2673,3.2671,3.2655,3.2651,3.267,3.2673,3.2677,3.2753,3.2676,3.2679,3.2681,3.2838,3.2841,3.2844,0,0,0,0,0,0,3.2631,3.2639,3.2693,3.2664,3.267,3.2658,3.2677,3.2673,3.2683,3.2674,3.2671,3.2667,3.2668,3.2673,3.2717,3.2753,3.268,3.2683,3.2835,3.2839,3.2842,3.2907,0,0,0,0,0,0,3.2629,3.2638,3.2664,3.2665,3.2671,3.2734,3.2679,3.2676,3.2688,3.2682,3.2685,3.2683,3.2667,3.2713,3.272,3.2756,3.2685,3.2832,3.2837,3.2841,3.2902,3.2913,3.2922,0,0,0,0,0,3.2627,3.2682,3.2666,3.2673,3.2703,3.2736,3.274,3.2721,3.2691,3.2716,3.2711,3.2683,3.2748,3.2719,3.2726,3.2762,3.2829,3.2835,3.2841,3.2897,3.2911,3.2922,0,0,0,0,0,0,3.2685,3.2681,3.2664,3.2721,3.2729,3.2727,3.2758,3.2736,3.2753,3.2747,3.2722,3.2723,3.2772,3.2772,3.2738,3.2826,3.2783,3.2791,3.2824,3.2837,3.2847,3.2845,3.2687,0,0,0,0,0,3.2704,3.2732,3.2727,3.2778,3.2783,3.277,3.2784,3.2769,3.2776,3.2779,3.2777,3.2785,3.2807,3.2822,3.2842,3.2902,3.2901,3.2931,3.2941,3.2949,3.2956,3.2986,3.2999,3.2863,3.2863,3.2863,0,0,3.2745,3.2746,3.2765,3.279,3.2795,3.2823,3.2774,3.2806,3.2826,3.2784,3.2826,3.2824,3.2831,3.2884,3.2907,3.2885,3.2993,3.2957,3.2964,3.2965,3.2993,3.3006,3.3018,3.2867,3.2866,3.2866,0,0,3.2833,3.2837,3.2879,3.2885,3.2893,3.2884,3.2895,3.2896,3.2893,3.2935,3.2904,3.2927,3.2967,3.2972,3.298,3.307,3.3044,3.3077,3.313,3.316,3.3171,3.318,3.3211,3.3222,3.3084,3.3084,3.3084,0,3.2882,3.2924,3.2904,3.2938,3.2949,3.2913,3.2954,3.2961,3.2975,3.2983,3.2959,3.3007,3.3009,3.3061,3.3083,3.3092,3.3101,3.3076,3.3171,3.318,3.3189,3.3217,3.3229,3.3088,3.3088,3.3087,3.3087,0,3.2983,3.3012,3.3045,3.306,3.3075,3.3113,3.3097,3.3115,3.3098,3.3092,3.3134,3.3135,3.3154,3.3166,3.315,3.3216,3.3202,3.3175,3.3132,3.3206,3.3232,3.3243,3.3094,3.3092,3.3091,3.309,0,0,3.3107,3.311,3.3123,3.3128,3.3134,3.3156,3.3192,3.3211,3.3226,3.3237,3.3265,3.3299,3.3274,3.3283,3.3268,3.3294,3.3363,3.3263,3.3263,3.3281,3.3434,3.3454,3.3467,3.3347,3.3349,3.3351,3.3433,0,3.3192,3.3254,3.3237,3.3298,3.3324,3.329,3.3321,3.3327,3.3322,3.3343,3.3336,3.336,3.3326,3.3331,3.3356,3.335,3.3394,3.3344,3.3372,3.3373,3.337,3.3481,3.3502,3.358,3.3444,3.3445,3.3447,0,3.33,3.3315,3.3379,3.338,3.339,3.3418,3.3434,3.3455,3.3461,3.3455,3.3466,3.3444,3.3478,3.3436,3.3482,3.3448,3.3459,3.3458,3.346,3.3461,3.3413,3.3483,3.3604,3.3615,3.3463,3.3462,3.3461,0,3.3382,3.3419,3.3462,3.3468,3.347,3.349,3.3492,3.3496,3.3509,3.3522,3.353,3.3547,3.3556,3.357,3.3554,3.3525,3.3601,3.3558,3.3596,3.3597,3.3613,3.3612,3.3736,3.3622,3.3622,3.3622,3.3622,0,3.3479,3.3519,3.3498,3.3525,3.3568,3.3548,3.3591,3.3589,3.3593,3.3617,3.3589,3.3612,3.359,3.3611,3.3599,3.3637,3.3642,3.3638,3.3633,3.3639,3.364,3.3645,3.3638,3.3625,3.3624,3.3624,3.3623,0,3.3578,3.3566,3.361,3.3608,3.3609,3.3641,3.3639,3.3663,3.3655,3.3686,3.3692,3.3681,3.3704,3.3689,3.3713,3.3705,3.3755,3.3744,3.3753,3.375,3.3788,3.3784,3.3918,3.3934,3.3812,3.3813,3.3814,0,3.3639,3.3669,3.3671,3.3685,3.3689,3.3713,3.3725,3.3706,3.372,3.3729,3.3751,3.3772,3.3788,3.3826,3.3819,3.3837,3.3825,3.3871,3.3828,3.3832,3.3824,3.3822,3.3824,3.3879,3.3881,3.3882,3.3883,0,3.3749,3.3741,3.3761,3.3778,3.3794,3.3806,3.3816,3.3829,3.381,3.3827,3.3851,3.3863,3.3887,3.3907,3.3922,3.3923,3.39,3.3897,3.3906,3.3912,3.3915,3.3913,3.3775,3.3894,3.3893,3.3892,3.3891,3.3891,3.383,3.3854,3.3859,3.3881,3.3887,3.3897,3.3919,3.3914,3.3933,3.3951,3.3939,3.3967,3.3971,3.3989,3.3992,3.4013,3.3994,3.4009,3.4012,3.4015,3.402,3.3913,3.4016,3.4016,3.4015,3.4015,3.4015,0,3.3937,3.3938,3.3959,3.3974,3.3991,3.3968,3.3978,3.3994,3.4018,3.4025,3.4041,3.4067,3.4087,3.4082,3.4099,3.4117,3.4106,3.4122,3.412,3.412,3.4036,3.4026,3.413,3.413,3.413,3.413,3.413,3.413,3.3994,3.4034,3.4027,3.4069,3.407,3.4097,3.4104,3.4113,3.4118,3.4149,3.4165,3.4162,3.4164,3.4181,3.4198,3.4196,3.4203,3.4222,3.4216,3.4137,3.4126,3.4115,3.4105,3.4224,3.4224,3.4297,3.4298,3.4298]}]]